ANA879 RJTT-YSSY

Flight info

Callsign ANA879
Flight time N/A
Altitude 33000
Route VAMOS XAC B586 SABRI/N0494F340 B586 CADDY/N0495F330 B586 UKATA 2444N14151E 2313N14211E 2100N14239E 1856N14305E 1401N14405E/N0491F350 1041N14440E 0459N14532E DCT PIKOK B586 PY DCT 1200S14728E 1329S14737E/N0485F370 1913S14842E DCT OVRON B462 MK H652 BOREE
Aircraft B77W/H-SDE1E2E3FGHIJ2J3J4J5M1RWXY/LB1D1

Departure

Time 2026-04-30 04:05
Airport Tokyo Haneda International Airport (RJTT)

Arrival

Time N/A
Airport Sydney Kingsford Smith International Airport (YSSY)
Time Latitude Longitude Altitude Speed Heading
2026-04-30 03:34 35.54978 139.79242 27 ft 0 kts 139°
2026-04-30 03:54 35.54980 139.79240 27 ft 3 kts 139°
2026-04-30 03:55 35.55005 139.79212 26 ft 3 kts 139°
2026-04-30 03:55 35.55016 139.79200 25 ft 4 kts 119°
2026-04-30 03:55 35.55021 139.79186 27 ft 4 kts 72°
2026-04-30 03:55 35.55009 139.79160 26 ft 4 kts 59°
2026-04-30 03:56 35.55005 139.79151 26 ft 0 kts 60°
2026-04-30 04:00 35.55007 139.79155 26 ft 3 kts 60°
2026-04-30 04:00 35.55030 139.79206 27 ft 12 kts 60°
2026-04-30 04:00 35.55079 139.79309 28 ft 14 kts 61°
2026-04-30 04:00 35.55105 139.79423 28 ft 14 kts 108°
2026-04-30 04:01 35.55032 139.79505 28 ft 14 kts 148°
2026-04-30 04:01 35.54946 139.79568 28 ft 14 kts 152°
2026-04-30 04:01 35.54857 139.79626 28 ft 14 kts 150°
2026-04-30 04:01 35.54770 139.79689 28 ft 14 kts 148°
2026-04-30 04:02 35.54684 139.79754 28 ft 14 kts 149°
2026-04-30 04:02 35.54597 139.79817 28 ft 14 kts 150°
2026-04-30 04:02 35.54504 139.79880 28 ft 17 kts 151°
2026-04-30 04:02 35.54382 139.79966 28 ft 23 kts 149°
2026-04-30 04:03 35.54244 139.80064 28 ft 23 kts 150°
2026-04-30 04:03 35.54106 139.80160 28 ft 23 kts 150°
2026-04-30 04:03 35.53988 139.80247 28 ft 16 kts 148°
2026-04-30 04:03 35.53919 139.80312 28 ft 11 kts 118°
2026-04-30 04:04 35.53939 139.80399 28 ft 11 kts 56°
2026-04-30 04:04 35.53979 139.80472 29 ft 5 kts 37°
2026-04-30 04:04 35.54016 139.80469 29 ft 6 kts 342°
2026-04-30 04:04 35.54034 139.80460 29 ft 1 kts 332°
2026-04-30 04:05 35.54133 139.80393 29 ft 42 kts 330°
2026-04-30 04:05 35.54693 139.80000 29 ft 143 kts 329°
2026-04-30 04:05 35.55821 139.79234 302 ft 212 kts 334°
2026-04-30 04:05 35.57140 139.78389 1762 ft 215 kts 334°
2026-04-30 04:06 35.58520 139.77615 3285 ft 220 kts 344°
2026-04-30 04:06 35.60086 139.77398 3760 ft 241 kts 12°
2026-04-30 04:06 35.61569 139.78358 4221 ft 247 kts 52°
2026-04-30 04:06 35.62260 139.80323 4640 ft 260 kts 88°
2026-04-30 04:07 35.61843 139.82482 5173 ft 266 kts 128°
2026-04-30 04:07 35.60565 139.83988 6224 ft 249 kts 144°
2026-04-30 04:07 35.59302 139.85458 6820 ft 263 kts 127°
2026-04-30 04:08 35.57363 139.89507 7895 ft 282 kts 125°
2026-04-30 04:08 35.56280 139.91504 8659 ft 286 kts 126°
2026-04-30 04:08 35.55117 139.93491 9378 ft 288 kts 135°
2026-04-30 04:08 35.53450 139.94837 9946 ft 292 kts 166°
2026-04-30 04:09 35.51418 139.95021 10441 ft 300 kts 189°
2026-04-30 04:09 35.49289 139.94531 10620 ft 323 kts 193°
2026-04-30 04:09 35.46998 139.93960 10809 ft 348 kts 193°
2026-04-30 04:09 35.44618 139.93117 11007 ft 363 kts 207°
2026-04-30 04:10 35.42381 139.91588 11562 ft 372 kts 212°
2026-04-30 04:10 35.40140 139.89961 12394 ft 375 kts 212°
2026-04-30 04:10 35.37885 139.88342 13390 ft 375 kts 212°
2026-04-30 04:10 35.35620 139.86739 14336 ft 376 kts 213°
2026-04-30 04:11 35.33347 139.85148 15158 ft 378 kts 213°
2026-04-30 04:11 35.31052 139.83553 15940 ft 381 kts 213°
2026-04-30 04:11 35.28734 139.81949 16733 ft 383 kts 214°
2026-04-30 04:11 35.26401 139.80338 17491 ft 386 kts 214°
2026-04-30 04:12 35.24074 139.78732 18186 ft 390 kts 214°
2026-04-30 04:12 35.21698 139.77094 18821 ft 394 kts 214°
2026-04-30 04:12 35.19310 139.75442 19440 ft 396 kts 215°
2026-04-30 04:12 35.16915 139.73750 20078 ft 398 kts 216°
2026-04-30 04:13 35.14518 139.72040 20691 ft 400 kts 216°
2026-04-30 04:13 35.12107 139.70318 21307 ft 403 kts 216°
2026-04-30 04:13 35.09675 139.68583 21919 ft 405 kts 216°
2026-04-30 04:13 35.07232 139.66844 22502 ft 408 kts 216°
2026-04-30 04:14 35.04769 139.65094 23065 ft 411 kts 216°
2026-04-30 04:14 35.02291 139.63336 23621 ft 413 kts 216°
2026-04-30 04:14 34.99798 139.61569 24095 ft 415 kts 216°
2026-04-30 04:14 34.97325 139.59819 24545 ft 417 kts 216°
2026-04-30 04:15 34.94839 139.58061 24977 ft 419 kts 216°
2026-04-30 04:15 34.92314 139.56276 25404 ft 421 kts 216°
2026-04-30 04:15 34.89767 139.54477 25826 ft 424 kts 216°
2026-04-30 04:15 34.87206 139.52669 26247 ft 426 kts 216°
2026-04-30 04:16 34.84631 139.50853 26641 ft 429 kts 216°
2026-04-30 04:16 34.82038 139.49024 27038 ft 431 kts 216°
2026-04-30 04:16 34.79427 139.47186 27426 ft 434 kts 216°
2026-04-30 04:16 34.76809 139.45343 27804 ft 437 kts 216°
2026-04-30 04:17 34.74085 139.43643 28069 ft 446 kts 208°
2026-04-30 04:17 34.71042 139.42592 28312 ft 462 kts 198°
2026-04-30 04:17 34.67824 139.42105 28680 ft 472 kts 191°
2026-04-30 04:17 34.64529 139.42257 29012 ft 485 kts 181°
2026-04-30 04:18 34.61161 139.42812 29284 ft 491 kts 180°
2026-04-30 04:18 34.57778 139.43430 29552 ft 494 kts 179°
2026-04-30 04:18 34.54369 139.44055 29890 ft 495 kts 180°
2026-04-30 04:18 34.50964 139.44658 30349 ft 493 kts 180°
2026-04-30 04:19 34.47572 139.45234 30755 ft 491 kts 180°
2026-04-30 04:19 34.44188 139.45790 31188 ft 489 kts 181°
2026-04-30 04:19 34.40821 139.46332 31590 ft 487 kts 181°
2026-04-30 04:19 34.37466 139.46868 31972 ft 486 kts 181°
2026-04-30 04:20 34.34166 139.47395 32345 ft 484 kts 181°
2026-04-30 04:20 34.30826 139.47930 32731 ft 483 kts 181°
2026-04-30 04:20 34.27502 139.48464 33094 ft 482 kts 181°
2026-04-30 04:21 34.20800 139.49536 33294 ft 487 kts 181°
2026-04-30 04:21 34.17436 139.50078 33735 ft 483 kts 181°
2026-04-30 04:21 34.14122 139.50611 34218 ft 478 kts 181°
2026-04-30 04:21 34.10836 139.51138 34603 ft 475 kts 181°
2026-04-30 04:22 34.07558 139.51660 34909 ft 474 kts 182°
2026-04-30 04:22 34.04282 139.52178 35089 ft 475 kts 182°
2026-04-30 04:22 34.01029 139.52689 35108 ft 478 kts 182°
2026-04-30 04:23 33.94433 139.53730 35160 ft 477 kts 182°
2026-04-30 04:23 33.87866 139.54772 35162 ft 475 kts 182°
2026-04-30 04:24 33.81306 139.55811 35164 ft 475 kts 182°
2026-04-30 04:24 33.75047 139.56799 35153 ft 475 kts 182°
2026-04-30 04:25 33.68519 139.57827 35162 ft 476 kts 182°
2026-04-30 04:25 33.61948 139.58861 35157 ft 477 kts 181°
2026-04-30 04:26 33.55354 139.59897 35161 ft 478 kts 181°
2026-04-30 04:26 33.48741 139.60936 35155 ft 479 kts 181°
2026-04-30 04:27 33.42114 139.61975 35148 ft 480 kts 181°
2026-04-30 04:27 33.35476 139.63014 35143 ft 480 kts 181°
2026-04-30 04:28 33.28849 139.64050 35136 ft 481 kts 181°
2026-04-30 04:28 33.22253 139.65079 35137 ft 481 kts 181°
2026-04-30 04:29 33.15619 139.66113 35135 ft 481 kts 181°
2026-04-30 04:29 33.08975 139.67146 35132 ft 481 kts 180°
2026-04-30 04:30 33.02334 139.68178 35128 ft 481 kts 180°
2026-04-30 04:30 32.95684 139.69209 35131 ft 482 kts 180°
2026-04-30 04:31 32.89034 139.70239 35125 ft 482 kts 180°
2026-04-30 04:31 32.82418 139.71263 35124 ft 482 kts 180°
2026-04-30 04:32 32.75764 139.72289 35117 ft 482 kts 180°
2026-04-30 04:32 32.69101 139.73300 35113 ft 482 kts 180°
2026-04-30 04:33 32.62450 139.74302 35113 ft 482 kts 180°
2026-04-30 04:33 32.55796 139.75306 35112 ft 482 kts 180°
2026-04-30 04:34 32.49149 139.76309 35111 ft 481 kts 180°
2026-04-30 04:34 32.42550 139.77302 35105 ft 481 kts 180°
2026-04-30 04:35 32.35902 139.78313 35107 ft 481 kts 180°
2026-04-30 04:35 32.29242 139.79328 35104 ft 481 kts 180°
2026-04-30 04:36 32.22635 139.80333 35097 ft 482 kts 180°
2026-04-30 04:36 32.15985 139.81341 35096 ft 482 kts 180°
2026-04-30 04:37 32.09329 139.82349 35098 ft 482 kts 180°
2026-04-30 04:37 32.02662 139.83357 35099 ft 483 kts 180°
2026-04-30 04:38 31.95989 139.84364 35097 ft 484 kts 180°
2026-04-30 04:38 31.89304 139.85372 35096 ft 484 kts 180°
2026-04-30 04:39 31.82610 139.86380 35092 ft 484 kts 180°
2026-04-30 04:39 31.75934 139.87384 35092 ft 484 kts 180°
2026-04-30 04:40 31.69290 139.88382 35047 ft 482 kts 179°
2026-04-30 04:40 31.65966 139.88881 34802 ft 482 kts 179°
2026-04-30 04:40 31.62617 139.89382 34423 ft 485 kts 179°
2026-04-30 04:40 31.59253 139.89883 34005 ft 489 kts 179°
2026-04-30 04:41 31.55864 139.90388 33565 ft 491 kts 179°
2026-04-30 04:41 31.52464 139.90896 33176 ft 492 kts 179°
2026-04-30 04:41 31.49074 139.91404 33100 ft 492 kts 179°
2026-04-30 04:42 31.42320 139.92416 33086 ft 488 kts 179°
2026-04-30 04:42 31.35591 139.93421 33085 ft 486 kts 179°
2026-04-30 04:43 31.30017 139.94249 33083 ft 485 kts 178°
2026-04-30 04:43 31.23311 139.95245 33084 ft 486 kts 178°
2026-04-30 04:44 31.16594 139.96242 33086 ft 486 kts 178°
2026-04-30 04:44 31.09868 139.97239 33092 ft 487 kts 178°
2026-04-30 04:45 31.03124 139.98237 33092 ft 488 kts 178°
2026-04-30 04:45 30.96434 139.99860 33082 ft 496 kts 168°
2026-04-30 04:46 30.89849 140.02304 33083 ft 497 kts 167°
2026-04-30 04:46 30.83293 140.04740 33091 ft 497 kts 167°
2026-04-30 04:47 30.76691 140.07148 33088 ft 497 kts 168°
2026-04-30 04:47 30.70079 140.09534 33088 ft 497 kts 168°
2026-04-30 04:48 30.63476 140.11912 33090 ft 497 kts 168°
2026-04-30 04:48 30.56876 140.14288 33085 ft 497 kts 167°
2026-04-30 04:49 30.50271 140.16663 33087 ft 497 kts 167°
2026-04-30 04:49 30.43663 140.19036 33094 ft 497 kts 167°
2026-04-30 04:50 30.37055 140.21406 33092 ft 497 kts 167°
2026-04-30 04:50 30.30485 140.23759 33088 ft 498 kts 167°
2026-04-30 04:51 30.23857 140.26129 33081 ft 498 kts 167°
2026-04-30 04:51 30.17234 140.28494 33087 ft 499 kts 167°
2026-04-30 04:52 30.10604 140.30859 33083 ft 499 kts 167°
2026-04-30 04:52 30.03963 140.33225 33083 ft 499 kts 167°
2026-04-30 04:53 29.97311 140.35547 33083 ft 498 kts 169°
2026-04-30 04:53 29.90652 140.37551 33085 ft 497 kts 170°
2026-04-30 04:54 29.83936 140.39483 33085 ft 498 kts 170°
2026-04-30 04:54 29.77226 140.41449 33084 ft 498 kts 170°
2026-04-30 04:55 29.70517 140.43446 33083 ft 498 kts 169°
2026-04-30 04:55 29.63816 140.45448 33078 ft 498 kts 169°
2026-04-30 04:56 29.57105 140.47451 33080 ft 498 kts 169°
2026-04-30 04:56 29.50401 140.49446 33082 ft 498 kts 169°
2026-04-30 04:57 29.43692 140.51439 33088 ft 498 kts 169°
2026-04-30 04:57 29.36987 140.53428 33087 ft 498 kts 169°
2026-04-30 04:58 29.30277 140.55415 33089 ft 498 kts 169°
2026-04-30 04:58 29.23558 140.57403 33088 ft 498 kts 169°
2026-04-30 04:59 29.16856 140.59383 33087 ft 498 kts 169°
2026-04-30 04:59 29.10143 140.61364 33088 ft 498 kts 169°
2026-04-30 05:00 29.03430 140.63342 33088 ft 497 kts 169°
2026-04-30 05:00 28.96763 140.65304 33088 ft 497 kts 169°
2026-04-30 05:01 28.90062 140.67273 33089 ft 497 kts 169°
2026-04-30 05:01 28.83353 140.69242 33090 ft 497 kts 169°
2026-04-30 05:02 28.76650 140.71206 33085 ft 497 kts 169°
2026-04-30 05:02 28.69946 140.73169 33089 ft 497 kts 169°
2026-04-30 05:03 28.63239 140.75129 33089 ft 497 kts 169°
2026-04-30 05:03 28.56540 140.77085 33086 ft 497 kts 169°
2026-04-30 05:04 28.49846 140.79036 33083 ft 497 kts 169°
2026-04-30 05:04 28.43140 140.80989 33084 ft 497 kts 169°
2026-04-30 05:05 28.36489 140.82923 33089 ft 497 kts 169°
2026-04-30 05:05 28.29790 140.84868 33088 ft 497 kts 169°
2026-04-30 05:06 28.19738 140.87782 33087 ft 497 kts 169°
2026-04-30 05:06 28.13035 140.89723 33088 ft 497 kts 169°
2026-04-30 05:07 28.06335 140.91660 33085 ft 497 kts 169°
2026-04-30 05:07 27.99672 140.93583 33086 ft 497 kts 169°
2026-04-30 05:08 27.92960 140.95519 33090 ft 497 kts 169°
2026-04-30 05:08 27.86259 140.97448 33084 ft 497 kts 169°
2026-04-30 05:09 27.79541 140.99380 33087 ft 497 kts 169°
2026-04-30 05:09 27.72824 141.01310 33087 ft 497 kts 169°
2026-04-30 05:10 27.66163 141.03221 33086 ft 497 kts 169°
2026-04-30 05:10 27.59441 141.05147 33084 ft 497 kts 169°
2026-04-30 05:11 27.52733 141.07066 33084 ft 497 kts 169°
2026-04-30 05:11 27.46032 141.08982 33084 ft 497 kts 169°
2026-04-30 05:12 27.39330 141.10895 33090 ft 497 kts 169°
2026-04-30 05:12 27.32630 141.12805 33088 ft 496 kts 169°
2026-04-30 05:13 27.25928 141.14713 33090 ft 496 kts 169°
2026-04-30 05:13 27.19268 141.16607 33090 ft 496 kts 169°
2026-04-30 05:14 27.12563 141.18511 33089 ft 496 kts 169°
2026-04-30 05:14 27.05867 141.20410 33084 ft 496 kts 169°
2026-04-30 05:15 26.99169 141.22308 33085 ft 496 kts 169°
2026-04-30 05:15 26.92475 141.24202 33088 ft 496 kts 169°
2026-04-30 05:16 26.85773 141.26097 33086 ft 496 kts 169°
2026-04-30 05:16 26.79111 141.27977 33084 ft 496 kts 169°
2026-04-30 05:17 26.72404 141.29868 33086 ft 496 kts 169°
2026-04-30 05:17 26.65707 141.31754 33085 ft 496 kts 169°
2026-04-30 05:18 26.58996 141.33641 33084 ft 496 kts 169°
2026-04-30 05:18 26.52292 141.35525 33084 ft 497 kts 169°
2026-04-30 05:19 26.45634 141.37392 33082 ft 497 kts 169°
2026-04-30 05:19 26.38922 141.39274 33077 ft 497 kts 169°
2026-04-30 05:20 26.32219 141.41150 33078 ft 497 kts 169°
2026-04-30 05:20 26.25508 141.43026 33077 ft 497 kts 169°
2026-04-30 05:21 26.18791 141.44902 33076 ft 497 kts 169°
2026-04-30 05:21 26.12072 141.46776 33083 ft 497 kts 169°
2026-04-30 05:22 26.05349 141.48649 33082 ft 498 kts 169°
2026-04-30 05:22 25.98680 141.50504 33076 ft 498 kts 169°
2026-04-30 05:23 25.91947 141.52375 33085 ft 498 kts 169°
2026-04-30 05:23 25.85219 141.54243 33081 ft 498 kts 169°
2026-04-30 05:24 25.78493 141.56108 33081 ft 498 kts 169°
2026-04-30 05:24 25.71805 141.57960 33083 ft 498 kts 169°
2026-04-30 05:25 25.65081 141.59820 33088 ft 498 kts 169°
2026-04-30 05:25 25.58348 141.61681 33079 ft 498 kts 169°
2026-04-30 05:26 25.51628 141.63535 33088 ft 498 kts 169°
2026-04-30 05:26 25.44901 141.65390 33084 ft 498 kts 169°
2026-04-30 05:27 25.38155 141.67247 33082 ft 498 kts 169°
2026-04-30 05:27 25.31426 141.69098 33081 ft 498 kts 169°
2026-04-30 05:28 25.24746 141.70933 33078 ft 498 kts 169°
2026-04-30 05:28 25.18011 141.72781 33078 ft 498 kts 169°